Starlink 11436

operational
NORAD ID: 62887 Int'l Des: 2025-024 Owner: SPXS Country: US Constellation: starlink
LEOCIRCULAR

Über Starlink 11436

Beschreibung wird geladen...

Live-Position

3D-Globus wird geladen...

Nächste Überflüge

Höhenverlauf

Altitude vs Time

uPlot chart will show altitude changes over time

Zweizeiliger Elementsatz

1 62887U 25024J 25259.12945403 .00108875 00000-0 83978-3 0 9992
2 62887 43.0014 153.5706 0002108 250.1962 109.8678 15.70871163 36016
Epoch: 16. Sept. 2025 • Age: 22 hours

Aktueller Status

Höhe 358.0 km
Geschwindigkeit 7.70 km/s
Subsatellitenpunkt 32.04°N, 176.45°W
Startdatum 4. Feb. 2025
Alter 0.6 years
Typ internet

Technische Details

Klassifizierung Payload
Masse 960.00 kg
Trockenmasse 910.00 kg
Gesamtmasse 960.00 kg
Länge 0.30 m
Durchmesser 4.10 m
Spannweite 29.00 m
Form Box + pan
Hersteller SPXS
Bus-Typ Starlink V2MD
Phasenstatus In Orbit
Besitzer/Staat SPXS/US

Große Konstellationen

Loading constellations...